TimeIST,TemperatureF,Dew PointF,Humidity,Sea Level PressureIn,VisibilityMPH,Wind Direction,Wind SpeedMPH,Gust SpeedMPH,PrecipitationIn,Events,Conditions,WindDirDegrees,DateUTC
12:00 AM,78.8,42.8,28,29.95,2.5,Variable,5.8,-,N/A,,Haze,0,2013-03-24 18:30:00
1:00 AM,77.0,42.8,29,29.95,2.5,Variable,8.1,-,N/A,,Haze,0,2013-03-24 19:30:00
2:00 AM,75.2,50.0,41,29.95,2.5,NNE,12.7,-,N/A,,Haze,30,2013-03-24 20:30:00
3:00 AM,73.4,55.4,53,29.92,2.5,NE,15.0,-,N/A,,Haze,40,2013-03-24 21:30:00
4:00 AM,71.6,57.2,60,29.92,2.5,NE,12.7,-,N/A,,Haze,40,2013-03-24 22:30:00
5:00 AM,71.6,57.2,60,29.92,2.5,Variable,8.1,-,N/A,,Haze,0,2013-03-24 23:30:00
5:30 AM,71,57,51,29.88,2,NE,5.8,,,,Haze,50,2013-03-25 00:00:00
5:30 AM,71.6,55.4,57,29.92,2.5,NE,5.8,-,N/A,,Haze,50,2013-03-25 00:00:00
6:00 AM,69.8,53.6,56,29.95,2.5,Variable,4.6,-,N/A,,Haze,0,2013-03-25 00:30:00
6:30 AM,69.8,53.6,56,29.95,2.5,Variable,2.3,-,N/A,,Haze,0,2013-03-25 01:00:00
7:00 AM,69.8,53.6,56,29.98,2.5,Calm,Calm,-,N/A,,Haze,0,2013-03-25 01:30:00
7:30 AM,71.6,53.6,53,29.98,2.5,Calm,Calm,-,N/A,,Haze,0,2013-03-25 02:00:00
8:00 AM,73.4,53.6,50,29.98,2.5,Variable,4.6,-,N/A,,Haze,0,2013-03-25 02:30:00
8:30 AM,75,51,32,29.92,2,,3.5,,,,Haze,,2013-03-25 03:00:00
9:00 AM,77.0,50.0,39,30.01,2.5,Variable,8.1,-,N/A,,Haze,0,2013-03-25 03:30:00
10:00 AM,80.6,46.4,30,30.01,2.5,Variable,6.9,-,N/A,,Haze,0,2013-03-25 04:30:00
11:30 AM,83,39,12,29.91,2,South,6.9,,,,Haze,180,2013-03-25 06:00:00
12:00 PM,84.2,35.6,18,29.98,3.1,Variable,5.8,-,N/A,,Haze,0,2013-03-25 06:30:00
1:00 PM,86.0,39.2,19,29.95,3.1,NNW,8.1,-,N/A,,Haze,330,2013-03-25 07:30:00
2:00 PM,86.0,37.4,18,29.92,3.1,WNW,9.2,-,N/A,,Haze,300,2013-03-25 08:30:00
2:30 PM,86,36,9,29.83,2,NW,6.9,,,,Haze,320,2013-03-25 09:00:00
3:00 PM,86.0,33.8,15,29.89,3.1,Variable,9.2,-,N/A,,Haze,0,2013-03-25 09:30:00
4:00 PM,87.8,35.6,16,29.86,3.1,Variable,10.4,25.3,N/A,,Haze,0,2013-03-25 10:30:00
5:00 PM,86.0,33.8,15,29.86,3.1,Variable,9.2,-,N/A,,Haze,0,2013-03-25 11:30:00
5:30 PM,86,37,9,29.77,2,NNW,6.9,,,,Haze,340,2013-03-25 12:00:00
6:00 PM,84.2,39.2,20,29.86,2.5,Variable,9.2,-,N/A,,Haze,0,2013-03-25 12:30:00
7:00 PM,80.6,41.0,24,29.86,2.5,Variable,9.2,-,N/A,,Haze,0,2013-03-25 13:30:00
8:00 PM,80.6,41.0,24,29.86,2.5,NW,5.8,-,N/A,,Haze,320,2013-03-25 14:30:00
8:30 PM,79,43,18,29.80,2,Calm,Calm,,,,Haze,,2013-03-25 15:00:00
9:00 PM,78.8,42.8,28,29.89,2.5,Variable,6.9,-,N/A,,Haze,0,2013-03-25 15:30:00
10:00 PM,77.0,42.8,29,29.89,2.5,Variable,5.8,-,N/A,,Haze,0,2013-03-25 16:30:00
11:30 PM,74,46,26,29.82,1,NW,4.6,,,,Haze,320,2013-03-25 18:00:00
11:30 PM,75.2,42.8,31,29.89,1.9,NW,4.6,-,N/A,,Haze,320,2013-03-25 18:00:00